Regional Weather Roundup
Issued by NWS

Home | Current Version | Previous Version | Text Only | Print | Product List | Glossary On
Versions: 1 2 3 4 5 6 7 8 9 10 11 12 13 14 15 16 17 18 19 20 21 22 23 24 25 26 27 28 29 30 31 32 33 34 35 36 37 38 39 40 41 42 43 44 45 46 47 48 49 50
000
ASUS42 KKEY 300910
RWRKEY

FLORIDA REGIONAL WEATHER ROUNDUP FOR THE FLORIDA KEYS
NATIONAL WEATHER SERVICE KEY WEST FLORIDA
400 AM EST FRI JAN 30 2015

...SOUTH FLORIDA AND THE KEYS...

CITY           SKY/WX    TMP DP  RH WIND       PRES   REMARKS
FORT MYERS     CLEAR     52  49  89 CALM      30.18F
SW REGIONAL AP CLEAR     50  47  89 CALM      30.19F
NAPLES         CLEAR     53  51  93 CALM      30.18F
MIAMI          MOCLDY    61  54  77 W3        30.17F
WEST KENDALL   CLOUDY    56  53  90 W6        30.17F
HOMESTEAD      MOCLDY    57  53  84 NW6       30.16F
MARATHON       PTCLDY    64  58  80 NE7       30.14F
BOCA CHICA NAS CLEAR     64  56  75 NE8       30.15F
KEY WEST INTL  CLEAR     64  56  75 N7        30.15F

...INTERNATIONAL WEATHER...

CITY           SKY/WX    TMP DP  RH WIND       PRES   REMARKS
NASSAU BAHAMAS   N/A     63  55  77 CALM      30.14S
CANCUN MEXICO  CLEAR     59  57  94 CALM      30.12F
COZUMEL MEXICO PTCLDY    57  55  94 CALM      30.12

ADJACENT COASTAL WATERS...

STATION/POSITION TIME  SKY/WX   TEMP    WIND        PRES    WAVE
                                AIR SEA DIR/SP/G            HT/PER
                 (UTC)          (F)     (DEG/KT/KT) (MB)    (FT/S)
PULASKI SHOAL LI NOT AVBL
SAND KEY         NOT AVBL
SOMBRERO KEY     NOT AVBL
LONG KEY         NOT AVBL
MOLASSES REEF    NOT AVBL
FOWEY ROCKS      NOT AVBL
Buoy 42080       NOT AVBL

$$



USA.gov is the U.S. government's official web portal to all federal, state and local government web resources and services.